STARLINK-34028, 63973

Orbit data source: Space-Track

STARLINK-34028, 63973 is a payload satellite owned by SpaceX/Seattle (US) in LEO that was launched on Tue, 13 May 2025 UTC via an FALCON 9 launch vehicle from the Air Force Eastern Test Range (AFETR). Payload-class satellites include a variety of spacecraft equipped with specific instruments for various scientific and technological missions. These include communications satellites like Starlink; space stations such as the ISS; scientific satellites like the Hubble; Earth observation satellites from companies like Planet Labs, Umbra, and HawkEye 360; GPS; miniature CubeSats for education and research; and military/defense satellites.

Loading next visibility...
Identifier
63973, 2025-099X
Orbit
LEO
Country
Flag of USUS
Related business
Manufacturer
SpaceX/Seattle
Mission
Operational Commercial Communications
Bus & Motor
STARLINK V2MO, Unknown motor
Mass
575 kg wet, ~530 kg dry
Launch date (UTC)
2025-05-13 (7 months ago)
Launch vehicle
FALCON 9
Launch site
Air Force Eastern Test Range (AFETR)
Object type
Payload
Rocket body
Debris
Shape & HBR
Box + 2 Pan, 17.7 m
Radar Cross Section
36.964 m², Large (>1 m²)

Expand to show TLE details & history
Last TLE update: 13 hours ago

TLE from 13 hours ago
0 STARLINK-34028
1 63973U 25099X   25346.92165218  .00026316  00000-0  96296-3 0  9990
2 63973  43.0013 302.9953 0001029 241.6048 118.4700 15.27561972 34103
Epoch: 2025-12-12T22:07Z
TLE epoch observation values (Epoch: 2025-12-12T22:07:10.748Z)
Latitude
-0.00001°
Longitude
-110.65583°
Altitude
483.215 km
Speed
7.625 km/s
True Right ascension
20h 11m 58s
True Declination
0° 00' 00"
Sunlit
Object was in daylight at epoch
Visualization orbit readout
Latitude
Unknown
Longitude
Unknown
Altitude
Unknown
Speed
Unknown
Apparent Right ascension
Unknown
Apparent Declination
Unknown
Sunlit
N/A
Visualization observer readout
Local Sidereal Time
09:36:01
Azimuth
Unknown
Elevation
Unknown
Doppler factor
Unknown
Orbital elements
Apogee altitude
485.754 km
Perigee altitude
484.342 km
Semi-major axis
6,863.185 km
Eccentricity
0.0001
Inclination
43.0013°
RAAN
302.9953°
Arg. of periapsis
241.6048°
True anomaly
118.48036°
Mean anomaly
118.47°
Eccentric anomaly
118.47518°
Mean motion
3.81729 °/min
Orbital period
94.31 mins
BSTAR
0.00096296
Loading maneuver chart data...
Computing Atmospheric mass density...
Loading historical data...
Loading historical data...
Loading historical data...
Loading historical data...
Loading historical data...
Loading historical data...
Loading historical data...

Documentation

Showing up to 5 results
|